When you browse on this site, cookies collect data to enhance your experience and personalize the content and advertising you see.
Visit our Privacy Policy to learn more. By continuing to use the site, you agree to this use of cookies and data.

Hourly Weather Red Deer

Today, 12 August, Wednesday

Time Temperature Precipitation Wind Pressure Humidity
00:00 +10°C° 0.4 mm 3 mps 674 mmHg 93%
01:00 +9°C° 0.4 mm 3 mps 674 mmHg 95%
02:00 +8°C° 0 mm 5 mps 674 mmHg 94%
03:00 +7°C° 0 mm 6 mps 675 mmHg 92%
04:00 +5°C° 0 mm 8 mps 675 mmHg 91%
05:00 +6°C° 0 mm 7 mps 676 mmHg 87%
06:00 +6°C° 0 mm 7 mps 676 mmHg 84%
07:00 +8°C° 0 mm 6 mps 677 mmHg 80%
08:00 +9°C° 0 mm 6 mps 677 mmHg 74%
09:00 +11°C° 0 mm 6 mps 678 mmHg 69%
10:00 +13°C° 0 mm 6 mps 678 mmHg 63%
11:00 +14°C° 0 mm 5 mps 678 mmHg 60%
12:00 +15°C° 0 mm 4 mps 679 mmHg 58%
13:00 +16°C° 0 mm 3 mps 679 mmHg 56%
14:00 +16°C° 0 mm 2 mps 679 mmHg 57%
15:00 +16°C° 0 mm 2 mps 679 mmHg 57%
16:00 +16°C° 0 mm 1 mps 679 mmHg 58%
17:00 +15°C° 0.1 mm 1 mps 679 mmHg 64%
18:00 +13°C° 0.1 mm 2 mps 678 mmHg 70%
19:00 +12°C° 0.1 mm 2 mps 678 mmHg 77%
20:00 +10°C° 0.3 mm 2 mps 679 mmHg 79%
21:00 +11°C° 0.3 mm 1 mps 679 mmHg 82%
22:00 +10°C° 0.3 mm 1 mps 679 mmHg 84%
23:00 +10°C° 0.1 mm 1 mps 680 mmHg 85%

Tomorrow, 13 August, Thursday

Time Temperature Precipitation Wind Pressure Humidity
00:00 +9°C° 0.1 mm 1 mps 680 mmHg 86%
01:00 +9°C° 0.1 mm 1 mps 680 mmHg 87%
02:00 +8°C° 0 mm 1 mps 680 mmHg 88%
03:00 +7°C° 0 mm 1 mps 680 mmHg 88%
04:00 +7°C° 0 mm 1 mps 680 mmHg 89%
05:00 +9°C° 0 mm 1 mps 680 mmHg 86%
06:00 +10°C° 0 mm 1 mps 680 mmHg 83%
07:00 +12°C° 0 mm 2 mps 681 mmHg 80%
08:00 +13°C° 0 mm 2 mps 681 mmHg 74%
09:00 +15°C° 0 mm 2 mps 681 mmHg 68%
10:00 +17°C° 0 mm 2 mps 681 mmHg 62%
11:00 +18°C° 0 mm 2 mps 681 mmHg 59%
12:00 +18°C° 0 mm 2 mps 681 mmHg 56%
13:00 +19°C° 0 mm 2 mps 681 mmHg 53%
14:00 +19°C° 0.1 mm 2 mps 681 mmHg 55%
15:00 +19°C° 0.1 mm 2 mps 681 mmHg 57%
16:00 +19°C° 0.1 mm 2 mps 681 mmHg 59%
17:00 +17°C° 0.1 mm 2 mps 681 mmHg 64%
18:00 +16°C° 0.1 mm 2 mps 680 mmHg 70%
19:00 +14°C° 0.1 mm 2 mps 680 mmHg 75%
20:00 +13°C° 0.3 mm 2 mps 681 mmHg 78%
21:00 +13°C° 0.3 mm 2 mps 681 mmHg 82%
22:00 +12°C° 0.3 mm 2 mps 681 mmHg 85%
23:00 +11°C° 0.1 mm 1 mps 681 mmHg 87%

Day after tomorrow, 14 August, Friday

Time Temperature Precipitation Wind Pressure Humidity
00:00 +11°C° 0.1 mm 1 mps 681 mmHg 88%
01:00 +10°C° 0.1 mm 1 mps 682 mmHg 90%
02:00 +10°C° 0 mm 1 mps 682 mmHg 89%
03:00 +9°C° 0 mm 1 mps 681 mmHg 89%
04:00 +8°C° 0 mm 1 mps 681 mmHg 89%
05:00 +9°C° 0 mm 2 mps 682 mmHg 88%
06:00 +10°C° 0 mm 2 mps 682 mmHg 87%
07:00 +12°C° 0 mm 2 mps 682 mmHg 87%
08:00 +13°C° 0.2 mm 3 mps 682 mmHg 79%
09:00 +16°C° 0.2 mm 3 mps 682 mmHg 72%
10:00 +18°C° 0.2 mm 3 mps 682 mmHg 64%
11:00 +18°C° 0.4 mm 3 mps 682 mmHg 63%
12:00 +18°C° 0.4 mm 3 mps 682 mmHg 61%
13:00 +19°C° 0.4 mm 3 mps 682 mmHg 60%
14:00 +18°C° 0.3 mm 3 mps 682 mmHg 63%
15:00 +18°C° 0.3 mm 3 mps 682 mmHg 67%
16:00 +17°C° 0.3 mm 3 mps 682 mmHg 70%
17:00 +16°C° 0 mm 2 mps 682 mmHg 72%
18:00 +15°C° 0 mm 2 mps 682 mmHg 74%
19:00 +14°C° 0 mm 1 mps 683 mmHg 76%
20:00 +13°C° 0 mm 1 mps 683 mmHg 76%
21:00 +13°C° 0 mm 2 mps 683 mmHg 76%
22:00 +12°C° 0 mm 2 mps 683 mmHg 75%
23:00 +12°C° 0 mm 2 mps 683 mmHg 76%

15 August, Saturday

Time Temperature Precipitation Wind Pressure Humidity
00:00 +11°C° 0 mm 3 mps 684 mmHg 76%
01:00 +11°C° 0 mm 3 mps 684 mmHg 76%
02:00 +11°C° 0 mm 3 mps 684 mmHg 76%
03:00 +10°C° 0 mm 3 mps 684 mmHg 76%
04:00 +10°C° 0 mm 3 mps 684 mmHg 76%
05:00 +11°C° 0 mm 3 mps 685 mmHg 79%
06:00 +11°C° 0 mm 3 mps 685 mmHg 81%
07:00 +11°C° 0 mm 3 mps 685 mmHg 84%
08:00 +12°C° 0 mm 3 mps 686 mmHg 80%
09:00 +13°C° 0 mm 3 mps 686 mmHg 76%
10:00 +16°C° 0 mm 3 mps 686 mmHg 72%
11:00 +16°C° 0 mm 3 mps 686 mmHg 70%
12:00 +16°C° 0 mm 3 mps 686 mmHg 69%
13:00 +16°C° 0 mm 3 mps 686 mmHg 68%
14:00 +17°C° 0 mm 3 mps 687 mmHg 67%
15:00 +17°C° 0 mm 3 mps 687 mmHg 67%
16:00 +18°C° 0 mm 3 mps 687 mmHg 66%
17:00 +17°C° 0 mm 2 mps 687 mmHg 72%
18:00 +15°C° 0 mm 2 mps 687 mmHg 78%
19:00 +14°C° 0 mm 1 mps 687 mmHg 83%
20:00 +13°C° 0 mm 1 mps 687 mmHg 83%
21:00 +12°C° 0 mm 0 mps 688 mmHg 82%
22:00 +12°C° 0 mm 0 mps 688 mmHg 82%
23:00 +13°C° 0 mm 1 mps 688 mmHg 82%

16 August, Sunday

Time Temperature Precipitation Wind Pressure Humidity
00:00 +13°C° 0 mm 1 mps 688 mmHg 81%
01:00 +13°C° 0 mm 1 mps 688 mmHg 81%
02:00 +12°C° 0 mm 1 mps 688 mmHg 84%
03:00 +12°C° 0 mm 2 mps 688 mmHg 86%
04:00 +10°C° 0 mm 2 mps 688 mmHg 89%
05:00 +12°C° 0 mm 2 mps 689 mmHg 86%
06:00 +14°C° 0 mm 2 mps 689 mmHg 84%
07:00 +14°C° 0 mm 3 mps 689 mmHg 81%
08:00 +16°C° 0 mm 3 mps 689 mmHg 77%
09:00 +17°C° 0 mm 4 mps 689 mmHg 72%
10:00 +19°C° 0 mm 4 mps 689 mmHg 68%
11:00 +19°C° 0 mm 4 mps 689 mmHg 66%
12:00 +20°C° 0 mm 5 mps 689 mmHg 65%
13:00 +21°C° 0 mm 5 mps 689 mmHg 64%
14:00 +21°C° 0 mm 4 mps 689 mmHg 65%
15:00 +21°C° 0 mm 4 mps 688 mmHg 66%
16:00 +21°C° 0 mm 4 mps 688 mmHg 68%
17:00 +19°C° 0 mm 4 mps 688 mmHg 73%
18:00 +18°C° 0 mm 4 mps 688 mmHg 79%
19:00 +15°C° 0 mm 4 mps 688 mmHg 84%
20:00 +14°C° 0 mm 4 mps 688 mmHg 81%
21:00 +13°C° 0 mm 4 mps 688 mmHg 78%
22:00 +13°C° 0 mm 4 mps 688 mmHg 75%
23:00 +12°C° 0 mm 4 mps 688 mmHg 75%

17 August, Monday

Time Temperature Precipitation Wind Pressure Humidity
00:00 +11°C° 0 mm 4 mps 687 mmHg 75%
01:00 +11°C° 0 mm 3 mps 687 mmHg 75%
02:00 +10°C° 0 mm 3 mps 687 mmHg 77%
03:00 +10°C° 0 mm 3 mps 686 mmHg 78%
04:00 +9°C° 0 mm 3 mps 686 mmHg 79%
05:00 +11°C° 0 mm 3 mps 686 mmHg 78%
06:00 +12°C° 0 mm 4 mps 686 mmHg 76%
07:00 +14°C° 0 mm 4 mps 686 mmHg 74%
08:00 +15°C° 0 mm 4 mps 686 mmHg 71%
09:00 +18°C° 0 mm 4 mps 686 mmHg 69%
10:00 +19°C° 0 mm 4 mps 686 mmHg 67%
11:00 +21°C° 0 mm 5 mps 686 mmHg 65%
12:00 +22°C° 0 mm 5 mps 686 mmHg 63%
13:00 +23°C° 0 mm 5 mps 686 mmHg 61%
14:00 +23°C° 0 mm 4 mps 686 mmHg 63%
15:00 +25°C° 0 mm 4 mps 685 mmHg 65%
16:00 +25°C° 0 mm 3 mps 685 mmHg 67%
17:00 +22°C° 0 mm 3 mps 685 mmHg 71%
18:00 +20°C° 0 mm 4 mps 684 mmHg 75%
19:00 +18°C° 0 mm 4 mps 684 mmHg 80%
20:00 +17°C° 0.1 mm 4 mps 683 mmHg 80%
21:00 +15°C° 0.1 mm 4 mps 683 mmHg 81%
22:00 +14°C° 0.1 mm 4 mps 683 mmHg 82%
23:00 +13°C° 0.5 mm 4 mps 683 mmHg 85%
Show more